Regional Weather Roundup
Issued by NWS

Home | Current Version | Previous Version | Graphics & Text | Print | Product List | Glossary On
Versions: 1 2 3 4 5 6 7 8 9 10 11 12 13 14 15 16 17 18 19 20 21 22 23 24 25 26 27 28 29 30 31 32 33 34 35 36 37 38 39 40 41 42 43 44 45 46 47 48 49 50
000
ASUS45 KSLC 280910
RWRUT

UTAH REGIONAL WEATHER ROUNDUP
NATIONAL WEATHER SERVICE SALT LAKE CITY UT
200 AM MST WED JAN 28 2015

UTZ001>011-023>025-281000-

NORTHERN UTAH

CITY           SKY/WX    TMP DP  RH WIND       PRES   REMARKS
BRIGHAM CITY   CLOUDY    41  38  89 SW3       30.19S
HILL AFB       LGT RAIN  43  37  81 S6        30.19R
LOGAN          CLOUDY    38  36  92 NE3       30.17S
OGDEN          CLOUDY    43  39  86 SE7       30.18S
PROVO AIRPORT  MOCLDY    41  34  75 E3        30.22S
SALT LAKE CITY MOCLDY    48  34  58 S14       30.18R
VERNAL         PTCLDY    28  24  85 W5        30.22S WCI  23
WENDOVER       CLOUDY    34  28  80 NE6       30.19S WCI  29
HEBER CITY     CLOUDY    41  30  65 SW12      30.20S
WEST JORDAN    CLOUDY    45  36  70 SE9       30.19F

$$

UTZ012>022-026-027-281000-

SOUTHERN/CENTRAL UTAH

CITY           SKY/WX    TMP DP  RH WIND       PRES   REMARKS
BLANDING       CLOUDY    37  33  87 CALM      30.34S
BRYCE CANYON   PTCLDY    25  23  92 S5        30.30F WCI  19
CEDAR CITY     MOCLDY    32  30  92 NE7       30.26F WCI  26
DELTA          CLEAR     38  34  83 S8        30.23S WCI  32
MILFORD        PTCLDY    37  34  89 SW15      30.24F WCI  28
MOAB/CYNLANDS  CLEAR     31  28  89 SW5       30.23S WCI  26
PRICE          MOCLDY    36  28  73 E3        30.24S
ST GEORGE      PTSUNNY   45  39  81 E3        30.27F
KANAB          MOCLDY    34  34 100 CALM      30.32F

$$

REGIONAL REPORTS     COLORADO/ARIZONA

CITY           SKY/WX    TMP DP  RH WIND       PRES   REMARKS
CRAIG, CO      CLOUDY    34  32  92 SE5       30.21S WCI  30
GRAND JUNCTION CLEAR     28  25  88 E5        30.24S WCI  23
RIFLE          MOCLDY    31  26  82 CALM      30.24S
MONTROSE       PTCLDY    33  26  75 S12       30.27S WCI  24
CORTEZ         CLEAR     29  27  92 E7        30.28S WCI  22
PAGE, AZ       NOT AVBL
GRAND CANYON   CLEAR     25  23  92 CALM      30.30F
KINGMAN        CLEAR     40  38  93 S3        30.23F
FLAGSTAFF      PTCLDY    28  25  88 CALM      30.30S

$$

REGIONAL REPORTS    NEVADA/IDAHO/WYOMING

CITY           SKY/WX    TMP DP  RH WIND       PRES   REMARKS
LAS VEGAS, NV  MOCLDY    51  46  83 S9        30.19S
ELY            CLOUDY    37  34  89 CALM      30.25S
ELKO           CLOUDY    39  35  86 SW8       30.24S WCI  33
POCATELLO, ID  LGT RAIN  40  40 100 SW12      30.17R WCI  33
BURLEY         LGT RAIN  40  38  93 W9        30.16R WCI  34
EVANSTON, WY   MOCLDY    33  28  81 SW7       30.19R WCI  27
ROCK SPRINGS   PTCLDY    31  27  85 W9        30.17R WCI  23
KEMMERER       CLOUDY    32  32 100 SW6       30.17F FOG     WCI  26

$$


USA.gov is the U.S. government's official web portal to all federal, state and local government web resources and services.